SCP
0 0 0 0 0 0 0 0 0 0 0 0 0 0 0 0 0 0 0 0 0 0 0 0 0 0 0 0 0 0 0 0 0 0 0 0 0 -0 0 -0 0 -0 -0 0 0 0 0 0 0 0 0 0 0 0
0 0 0 0 0 0 0 0 0 0 0 0 0 0 0 0 0 0 0 0 0 0 0 0 -0 -0 -0 -0 0 0 0 0 0 0 0 -0 0 0 -0 0 -0 -0 0 0 0 0 0 0 0 0 0 -0 -0 -0
0 0 0 0 0 0 0 0 0 0 0 0 0 0 0 0 0 0 0 0 0 0 0 0 0 0 0 0 0 0 0 -0 -0 -0 -0 -0 0 0 0 0 0 0 -0 0 0 0 -0 0 0 0 0 0 0 0
0 0 0 0 0 0 0 0 0 0 0 0 0 0 0 0 0 0 0 0 0 0 0 0 0 0 0 0 0 0 -0 0 -0 -0 0 0 0 0 0 -0 -0 0 -0 0 0 0 -0 0 0 0 0 0 0 0
0 0 0 0 0 0 0 0 0 0 0 0 0 0 0 0 0 0 0 0 0 0 0 0 -0 0 0 0 0 0 0 0 0 0 -0 -0 0 0 0 -0 0 -0 0 0 0 0 0 0 0 0 0 -0 -0 -0
0 0 0 0 0 0 0 0 0 0 0 0 0 0 0 0 0 0 0 0 0 0 0 0 0 0 0 0 0 0 0 0 0 0 0 -0 0 0 0 0 0 0 -0 0 0 0 0 0 0 0 0 0 0 -0
0 0 0 0 0 0 0 0 0 0 0 0 0 0 0 0 0 0 0 0 0 0 0 0 0 0 0 0 0 0 0 0 0 0 0 -0 -0 0 0 0 -0 -0 0 0 0 0 0 0 0 0 0 0 -0 -0
0 0 0 0 0 0 0 0 0 0 0 0 0 0 0 0 0 0 0 0 0 0 0 0 0 0 0 0 0 0 0 0 0 -0 0 0 0 0 0 0 -0 0 0 0 0 0 0 0 0 0 0 0 -0 -0
0 0 0 0 0 0 0 0 0 0 0 0 0 0 0 0 0 0 0 0 0 0 0 0 0 0 0 0 0 0 -0 -0 -0 -0 0 0 0 0 -0 0 -0 0 0 0 0 0 0 0 0 0 -0 -0 0 0
0 0 0 0 0 0 0 0 0 0 0 0 0 0 0 0 0 0 0 0 0 0 0 0 0 0 0 0 0 -0 -0 0 -0 0 0 0 0 0 -0 0 0 0 0 0 0 0 0 0 0 -0 0 -0 -0 -0
0 0 0 0 0 0 0 0 0 0 0 0 0 0 0 0 0 0 0 0 0 0 0 0 0 0 0 0 -0 -0 -0 -0 -0 -0 -0 -0 0 -0 0 0 0 0 0 0 0 0 0 0 0 0 -0 -0 -0 -0
0 0 0 0 0 -0 0 0 0 0 0 0 0 0 0 0 0 0 0 0 0 0 0 0 0 0 -0 -0 -0 -0 -0 -0 -0 -0 0 0 -0 -0 0 -0 -0 0 0 0 0 0 0 0 0 0 0 -0 -0 -0
0 0 0 0 -0 0 0 0 0 0 0 0 0 0 0 0 0 0 0 0 0 0 0 0 0 0 -0 -0 -0 -0 -0 0 -0 -0 -0 0 0 -0 -0 -0 -0 0 0 0 0 0 0 0 0 0 0 0 0 -0
0 0 0 0 -0 0 0 0 0 0 0 0 0 0 0 0 0 0 0 0 0 0 0 0 0 0 -0 -0 -0 -0 -0 -0 -0 -0 -0 -0 -0 -0 -0 -0 -0 -0 0 0 0 0 0 0 0 0 -0 0 0 -0
0 0 0 0 -0 0 0 0 0 0 0 0 0 0 0 0 0 0 0 0 0 0 0 0 0 -0 -0 -0 -0 -0 0 0 -0 -0 -0 -0 0 0 -0 0 0 0 0 0 0 0 0 -0 -0 -0 0 -0 -0 0
0 0 0 -0 -0 0 0 0 0 0 0 0 0 0 0 0 0 0 0 0 0 0 0 0 0 0 0 0 0 0 0 0 -0 -0 -0 -0 0 0 -0 0 0 0 -0 0 0 0 -0 -0 -0 0 0 -0 0 0
0 0 -0 -0 -0 -0 0 0 0 0 0 0 0 0 0 0 0 0 0 0 0 0 0 0 0 0 0 0 0 0 0 -0 -0 -0 -0 -0 -0 0 0 -0 0 0 0 0 0 0 -0 -0 -0 0 0 0 0 0
0 0 -0 -0 0 0 0 0 0 0 0 0 0 0 0 0 0 0 0 0 0 0 0 0 0 0 0 0 0 0 0 -0 -0 -0 -0 -0 -0 -0 -0 0 0 0 -0 0 -0 -0 -0 -0 -0 0 0 0 -0 0
-0 0 -0 -0 0 0 0 0 0 0 0 0 0 0 0 0 0 0 0 0 0 0 0 0 0 0 0 0 0 0 0 0 0 -0 -0 0 -0 -0 0 0 0 0 0 0 0 0 -0 -0 -0 0 0 -0 -0 0
-0 -0 0 0 0 0 0 0 0 0 0 0 0 0 0 0 0 0 0 0 0 0 0 0 0 0 0 0 0 0 0 0 0 0 0 0 0 0 -0 0 0 0 0 0 0 0 0 -0 -0 -0 0 0 -0 -0
0 0 0 0 0 0 0 0 0 0 0 0 0 0 0 0 0 0 0 0 0 0 0 0 0 0 0 0 0 0 0 0 0 0 0 0 0 0 0 -0 0 0 0 0 0 0 0 0 -0 -0 -0 0 0 -0
0 0 0 0 0 0 0 0 0 0 0 0 0 0 0 0 0 0 0 0 0 0 0 0 0 0 0 0 0 0 0 0 0 0 0 0 0 0 0 0 0 0 0 0 0 0 0 0 -0 -0 -0 -0 -0 0
0 0 0 0 0 0 0 0 0 0 0 0 0 0 0 0 0 0 0 0 0 0 0 0 0 0 0 0 0 0 0 0 0 0 0 0 0 0 0 0 0 0 0 0 0 0 0 0 0 -0 -0 -0 -0 -0
0 0 0 0 0 0 0 0 0 0 0 0 0 0 0 0 0 0 0 0 0 0 0 0 0 0 0 0 0 0 0 0 0 0 0 0 0 0 0 0 0 0 0 0 0 0 0 0 0 0 0 0 -0 -0
0 0 0 0 0 0 0 0 0 0 0 0 0 0 0 0 0 0 0 0 0 0 0 0 0 0 0 0 0 0 0 0 0 0 0 0 0 0 0 0 0 0 0 0 0 0 0 0 0 0 0 0 0 0
0 0 0 0 0 0 0 0 0 0 0 0 0 0 0 0 0 0 0 0 0 0 0 0 0 0 0 0 0 0 0 0 0 0 0 0 0 0 0 0 0 0 0 0 0 0 0 0 0 0 0 0 0 0
0 0 0 0 0 0 0 0 0 0 0 0 0 0 0 0 0 0 0 0 0 0 0 0 0 0 0 0 0 0 0 0 0 0 0 0 0 0 0 0 0 0 0 0 0 0 0 0 0 0 0 0 0 0
0 0 0 0 0 0 0 0 0 0 0 0 0 0 0 0 0 0 0 0 0 0 0 0 0 0 0 0 0 0 0 0 0 0 0 0 0 0 0 0 0 0 -0 0 0 0 0 0 0 0 0 0 0 0
0 0 0 0 0 0 0 0 0 0 0 0 0 0 0 0 0 0 0 0 0 0 0 0 0 0 0 0 0 0 0 0 0 0 0 0 0 0 -0 0 0 0 0 0 -0 -0 0 0 0 0 0 0 0 0
0 0 0 0 0 0 0 0 0 0 0 0 0 0 0 0 0 0 0 0 0 0 0 0 0 0 0 0 0 0 0 0 0 0 0 0 0 -0 -0 -0 -0 -0 -0 -0 -0 0 -0 -0 0 0 0 0 0 0
0 0 0 0 0 0 0 0 0 0 0 0 0 0 0 0 0 0 0 0 0 0 0 0 0 0 0 0 0 0 0 0 0 0 0 0 0 0 0 0 -0 -0 -0 -0 -0 -0 -0 0 0 0 0 0 0 0
0 0 0 0 0 0 0 0 0 0 0 0 0 0 0 0 0 0 0 0 0 0 0 0 0 0 0 0 0 0 0 0 0 0 0 0 0 0 0 0 0 0 0 -0 -0 -0 -0 -0 -0 0 0 0 0 0
0 0 0 0 0 0 0 0 0 0 0 0 0 0 0 0 0 0 0 0 0 0 0 0 0 0 0 0 0 0 0 0 0 0 0 0 0 0 0 0 0 0 0 0 0 0 0 -0 -0 -0 -0 0 0 0
Wind_Speed_500mb
62 56 54 53 51 45 54 56 52 43 38 32 29 29 29 29 30 26 19 13 7 13 30 16 13 18 16 14 7 15 11 7 10 5 5 6 6 8 10 10 10 5 6 5 11 10 8 15 22 15 32 53 59 67
63 64 58 58 59 56 59 57 59 54 51 34 27 26 28 28 28 25 11 22 21 16 19 28 25 23 30 25 16 6 10 9 10 6 7 7 5 6 10 6 4 5 10 8 7 10 36 29 35 45 45 52 54 58
50 57 63 62 67 68 68 62 57 55 54 39 28 23 27 28 25 23 17 18 18 13 22 13 5 9 12 14 20 11 2 4 3 8 11 4 7 3 6 6 10 9 18 8 18 1 32 42 49 42 50 54 57 62
43 47 53 64 67 68 62 62 58 55 58 51 31 22 24 26 24 23 18 18 9 9 10 1 10 9 12 9 15 26 17 8 10 12 7 6 6 5 6 9 11 11 18 22 26 31 44 23 47 53 63 60 61 66
41 40 46 57 68 68 61 60 58 53 53 49 30 23 24 25 22 23 23 14 13 5 13 17 21 11 11 13 16 21 28 24 14 7 7 7 6 7 8 6 1 6 8 6 12 54 42 44 56 63 58 67 66 66
40 43 42 44 61 74 61 54 52 53 48 45 25 24 28 23 17 14 8 13 12 10 8 7 7 8 7 11 15 18 17 19 12 8 9 9 3 4 4 4 4 47 43 38 21 50 65 70 55 62 68 72 65 67
48 46 45 40 47 57 62 48 50 47 43 42 27 29 29 23 11 11 9 8 12 7 5 10 7 7 4 1 3 7 13 8 11 7 9 5 4 7 3 5 49 55 60 62 38 51 53 46 57 67 71 71 69 60
44 45 47 44 47 45 57 50 47 42 40 37 27 30 30 18 11 19 20 27 9 7 7 5 7 8 1 7 10 8 12 12 13 7 6 4 6 7 5 40 53 56 59 36 48 49 52 51 60 75 79 69 74 62
42 41 43 42 44 41 51 52 38 36 35 39 30 27 16 8 12 9 10 7 16 13 7 7 5 4 8 12 9 10 4 7 15 5 4 5 3 7 11 35 53 59 42 47 54 44 42 51 65 73 75 75 63 59
46 43 46 45 45 40 48 48 32 30 41 35 19 10 10 10 17 15 5 9 14 11 12 9 7 7 12 11 2 4 2 4 3 4 5 3 4 9 21 32 47 47 47 44 49 52 56 55 66 73 74 73 59 55
46 43 45 45 40 41 51 44 30 41 40 19 15 10 7 22 15 6 8 10 12 8 13 12 11 10 2 7 3 1 5 7 3 4 4 6 3 23 36 42 42 43 45 43 41 42 48 51 60 77 78 68 58 52
47 47 48 45 42 46 50 43 36 42 27 17 18 17 13 8 8 9 8 8 9 7 13 9 4 6 1 2 6 1 4 3 2 2 3 4 8 33 41 49 49 57 55 54 45 47 51 50 53 76 74 76 63 50
45 47 44 43 44 51 53 39 40 46 27 28 10 11 11 13 13 11 14 8 8 12 14 13 6 5 7 6 7 5 5 3 12 2 2 3 21 36 44 47 52 52 55 57 53 52 54 51 47 69 72 69 55 50
47 45 45 45 45 58 57 38 43 45 21 12 14 12 11 10 11 10 9 7 9 11 14 9 6 5 3 6 1 4 2 4 3 1 3 10 32 43 44 44 47 59 68 64 58 51 54 51 50 65 62 62 53 50
35 39 42 43 55 64 49 43 48 40 14 10 10 10 14 16 10 10 12 15 12 10 8 7 6 7 4 3 0 5 4 3 1 3 6 27 35 42 43 46 47 49 64 67 60 53 54 47 52 60 66 69 63 56
40 36 52 54 68 61 51 52 46 32 10 8 12 7 10 12 14 18 17 15 11 8 8 6 4 5 3 2 6 0 2 1 2 7 21 25 32 35 40 42 43 44 51 63 53 47 44 45 51 57 56 77 71 64
60 40 68 70 71 60 61 49 25 14 12 9 11 20 14 14 18 21 18 13 13 11 7 4 6 3 5 4 5 3 2 5 13 17 19 22 25 33 38 40 41 42 49 55 46 42 41 45 44 55 60 61 72 70
63 55 81 82 70 72 54 23 16 14 12 16 8 14 20 8 16 18 15 14 9 8 8 2 6 8 5 5 4 7 3 8 12 16 17 17 21 27 31 37 37 38 42 50 43 35 36 44 48 52 51 50 68 73
69 72 86 70 72 48 15 18 12 9 15 7 12 11 22 14 9 17 17 12 8 8 8 6 3 4 5 4 11 9 4 6 13 15 13 15 19 25 28 32 32 35 39 46 43 35 32 34 39 42 46 54 49 63
60 70 68 68 65 13 10 8 15 6 9 12 17 19 18 14 19 18 15 13 14 9 7 5 1 7 10 16 15 12 7 7 11 13 15 19 21 24 26 29 31 34 36 41 45 32 30 31 36 37 45 49 53 48
78 76 73 65 29 10 8 12 10 9 10 11 19 22 12 20 21 18 14 14 11 5 7 6 14 17 21 21 16 12 7 9 10 11 15 20 23 23 23 25 26 29 37 43 48 38 33 34 35 33 33 41 46 42
65 75 52 42 5 7 6 12 8 11 11 7 23 21 15 18 18 17 17 11 6 6 9 18 22 26 24 18 14 9 4 7 9 11 16 17 20 25 26 27 27 29 32 37 44 40 31 30 30 29 34 32 31 39
71 55 25 8 6 5 9 18 7 12 8 18 21 12 9 13 16 21 10 8 7 9 17 25 27 24 21 19 13 7 5 7 8 10 12 15 16 19 22 25 24 25 32 32 33 37 34 22 26 25 27 31 27 26
49 13 8 9 7 7 15 9 10 12 7 9 9 9 12 11 19 12 9 13 14 24 28 31 31 28 22 17 10 4 3 5 7 8 11 15 16 19 22 22 24 24 31 32 29 28 32 27 19 23 22 26 28 25
12 8 10 7 8 10 11 10 9 8 8 11 16 8 9 14 9 10 10 19 29 33 34 33 30 27 23 18 13 6 2 3 4 6 9 13 15 16 19 21 21 25 37 38 37 34 29 27 20 17 18 17 22 21
6 8 12 13 11 9 11 10 14 11 11 12 12 14 12 8 9 8 9 26 33 42 43 40 35 29 22 18 15 10 2 3 4 5 7 10 13 15 20 23 24 23 37 37 38 37 33 27 23 13 11 16 16 17
7 7 10 5 11 11 9 7 9 7 12 12 11 11 10 9 12 6 8 16 28 34 37 34 31 27 24 20 16 10 4 3 3 4 5 7 10 13 15 21 23 26 34 34 36 35 36 33 24 16 6 8 9 7
3 10 11 18 8 9 4 9 13 15 12 11 18 14 12 6 4 7 7 16 26 38 37 32 27 26 25 21 16 11 5 6 7 7 6 8 11 10 17 19 20 27 30 31 34 33 33 35 33 22 13 7 10 10
6 12 16 12 8 8 10 9 9 6 4 15 16 7 7 7 7 10 18 31 39 41 40 38 32 29 27 21 15 10 6 8 7 5 7 7 10 12 21 22 25 26 27 29 33 35 35 34 33 30 20 17 16 21
12 20 7 15 9 10 7 4 5 7 8 10 14 14 13 12 10 17 28 34 35 34 33 32 31 28 24 19 15 9 4 5 8 8 7 10 15 20 23 25 26 27 30 32 33 31 34 36 33 28 25 18 19 24
18 16 9 10 7 9 10 14 15 16 12 12 14 19 21 17 16 20 23 26 28 31 31 31 28 23 20 16 12 10 6 3 8 12 14 15 17 20 24 27 28 30 32 34 33 32 33 34 33 35 33 27 22 29
13 15 12 8 7 15 17 7 8 6 9 10 11 12 20 15 12 14 20 23 26 27 27 27 25 22 19 17 12 10 6 1 5 10 12 12 14 18 22 24 28 31 33 34 34 35 37 38 39 39 41 38 31 33
10 12 11 7 11 14 12 11 7 7 8 8 9 18 11 12 9 11 29 28 23 25 26 24 23 22 20 16 12 6 3 3 8 10 13 15 18 21 23 25 29 32 33 35 37 39 40 41 42 44 45 43 38 37
Wind_Direction_500mb
258 257 247 243 244 249 260 259 274 270 273 292 301 307 313 324 330 340 319 318 321 276 288 263 273 272 279 273 294 339 269 195 264 300 323 337 315 1 283 304 317 281 284 204 214 247 267 33 328 313 316 311 314 308
256 258 253 244 246 245 253 258 264 269 265 279 290 300 307 315 321 332 318 318 327 275 262 288 275 258 248 253 295 288 329 301 344 321 359 321 306 323 330 300 23 314 357 302 286 295 320 323 326 318 315 300 294 293
264 256 252 244 247 250 261 262 266 270 265 256 278 291 300 307 315 316 299 306 319 297 305 265 259 248 281 246 227 269 121 332 326 339 323 354 282 301 295 310 314 329 349 285 319 238 323 329 310 310 308 300 299 299
272 266 251 252 253 254 254 255 256 265 276 254 263 280 291 299 308 304 284 301 282 291 282 162 255 301 267 271 250 231 246 280 295 293 298 272 268 321 299 300 291 3 319 342 285 284 333 307 315 314 309 310 310 307
269 270 256 249 255 259 259 261 267 267 268 246 248 276 286 293 302 300 290 267 228 262 314 295 296 250 238 257 250 238 241 242 252 255 237 242 243 278 271 308 182 343 345 309 289 305 293 278 301 303 321 321 314 311
263 266 265 256 253 255 259 264 267 266 256 239 236 265 276 283 306 311 289 223 221 215 286 287 298 246 248 277 257 229 235 207 210 221 256 263 350 155 281 277 41 345 331 311 269 281 278 283 304 326 324 321 317 311
261 260 265 261 261 262 254 258 266 262 247 233 227 267 274 269 265 224 236 238 213 209 260 286 240 195 302 288 234 196 188 194 205 230 239 274 303 197 271 334 342 332 328 325 321 327 321 328 326 326 325 323 318 312
267 251 261 259 263 265 252 254 258 253 242 226 240 267 272 261 273 264 253 229 219 246 240 268 276 230 41 315 309 211 204 201 213 241 226 217 220 226 237 352 333 331 331 324 331 326 317 326 329 331 329 323 326 318
257 256 263 258 255 256 251 249 250 245 232 219 235 274 256 201 210 195 180 210 214 224 278 237 271 324 339 310 289 229 182 219 166 229 171 261 98 52 320 326 333 330 323 314 319 325 331 334 333 335 334 335 328 322
254 256 262 258 251 247 244 239 232 221 221 213 253 211 212 200 162 164 187 186 204 218 225 252 264 287 326 324 272 287 345 253 233 67 147 193 92 15 331 335 329 329 326 334 329 332 331 332 335 336 331 340 332 327
249 256 257 252 239 237 234 223 210 207 205 215 196 187 174 151 148 187 234 219 190 222 214 232 258 299 350 310 305 330 304 333 247 129 249 169 101 350 341 345 341 341 342 338 333 327 330 327 332 339 342 343 338 337
250 249 250 238 225 225 220 208 209 201 194 190 140 128 142 181 202 223 209 184 222 228 187 210 209 233 171 259 259 316 285 267 59 349 259 106 19 344 345 343 341 346 348 346 341 335 338 331 336 339 339 351 346 343
241 243 239 224 217 216 208 209 195 198 201 143 165 163 185 180 214 219 196 188 212 190 182 188 181 169 168 206 234 268 251 13 310 243 12 61 354 343 342 341 338 344 349 356 349 350 348 338 337 342 337 345 348 354
242 235 223 205 207 206 199 199 195 193 171 171 176 188 219 182 229 209 225 163 127 161 165 197 157 194 158 193 249 265 317 263 253 233 60 16 349 333 338 338 339 337 349 352 351 347 340 342 346 349 357 354 360 4
230 217 197 200 204 194 193 188 194 188 175 188 206 217 208 232 255 196 143 135 135 154 173 166 167 214 130 129 180 259 231 226 93 9 346 349 329 330 333 337 337 336 341 349 356 346 349 356 356 357 355 14 15 14
209 178 195 196 191 179 176 186 188 185 200 219 226 230 215 225 185 171 172 144 151 160 166 211 171 196 139 243 221 164 262 241 22 12 325 322 327 328 331 334 334 335 340 350 357 350 356 3 0 3 3 17 20 22
173 175 187 185 172 176 186 184 165 184 202 217 228 223 218 245 191 176 178 159 165 191 206 184 208 129 137 200 173 213 240 346 331 325 323 328 326 329 332 334 337 337 344 356 0 352 359 4 6 10 11 12 25 22
179 175 176 173 173 175 175 170 170 189 217 219 220 198 195 230 188 164 159 162 181 203 192 176 136 190 204 188 164 154 218 303 315 329 332 331 332 335 338 336 340 342 347 2 2 359 3 5 8 8 9 9 27 20
176 171 177 179 173 156 145 178 174 205 213 189 196 192 202 201 180 160 154 161 166 170 147 184 220 202 159 149 135 138 170 357 344 348 351 350 345 339 338 340 341 347 357 5 11 12 3 12 9 4 7 17 25 26
171 175 175 173 169 138 129 144 167 191 188 190 190 207 197 182 160 149 146 154 163 167 192 215 117 136 144 134 133 128 91 15 359 1 9 358 349 341 344 345 342 348 359 8 19 23 22 18 15 11 5 13 25 27
157 165 171 171 152 121 134 154 164 186 163 174 185 179 169 159 159 164 160 163 192 218 173 176 144 133 133 132 134 127 67 35 11 4 351 351 349 347 346 349 348 349 360 5 20 26 29 16 9 9 14 15 20 35
151 169 162 161 120 127 132 170 137 147 166 148 173 187 167 179 174 178 163 193 208 182 177 164 157 150 142 139 134 124 78 29 3 358 359 357 356 359 354 353 350 347 357 359 8 18 23 21 12 8 11 20 12 27
156 161 138 130 126 136 128 150 152 167 168 172 176 181 164 177 173 160 202 195 174 176 161 158 157 153 152 152 141 105 60 30 15 9 6 3 1 2 2 358 356 354 352 356 1 10 20 30 35 15 12 15 21 27
143 116 137 144 152 139 150 169 170 158 146 173 193 185 163 149 160 206 211 180 166 161 161 161 159 156 160 168 168 145 38 25 8 2 359 6 5 3 3 3 358 1 3 2 357 2 10 23 37 25 13 19 20 27
123 156 149 151 184 161 156 146 164 176 180 181 190 149 152 167 182 193 219 181 172 171 171 169 171 174 174 172 171 172 65 43 7 3 349 359 359 3 6 9 7 356 4 7 10 5 2 8 26 54 38 25 28 32
120 164 186 175 162 176 165 160 173 166 172 178 191 140 162 169 176 220 208 189 182 178 177 176 175 175 175 175 169 166 155 4 353 342 342 357 358 357 358 1 360 355 358 5 6 4 2 359 1 19 61 48 24 45
144 167 176 155 151 151 154 128 135 169 191 184 163 161 169 187 210 144 140 156 170 173 169 168 169 168 165 159 155 143 117 27 2 313 316 350 349 347 351 349 348 338 349 3 3 1 360 358 353 346 12 86 74 41
120 169 173 160 144 178 152 170 181 189 194 166 168 185 183 197 107 113 134 150 154 153 153 153 155 156 155 152 144 134 88 27 359 12 328 351 347 348 346 344 338 343 354 344 355 358 358 354 349 337 305 235 165 131
171 166 152 163 132 187 216 206 199 148 132 185 191 143 114 85 96 116 132 139 146 149 146 145 148 148 139 136 131 124 110 82 69 46 18 344 339 328 345 348 346 344 342 342 343 348 352 352 351 347 321 266 219 193
170 172 181 176 184 197 169 189 137 117 98 118 120 113 98 98 86 125 139 145 149 152 153 154 152 150 151 151 146 130 96 58 40 34 12 343 338 343 350 349 345 342 342 343 345 341 339 341 343 342 336 309 260 226
160 171 175 174 199 191 145 122 115 117 105 88 97 123 129 126 122 118 143 152 153 153 154 154 154 157 156 160 163 158 151 64 5 360 355 352 343 342 342 344 343 342 342 341 340 337 335 334 332 330 329 316 278 241
170 185 177 174 149 159 161 144 121 123 129 139 129 133 135 130 128 151 154 153 158 158 160 158 158 155 156 156 153 185 199 253 343 346 347 349 343 340 341 339 339 340 340 338 335 333 332 330 328 326 320 313 292 251
172 177 188 162 147 177 160 146 123 114 121 123 125 138 125 142 135 161 173 162 166 166 158 157 157 151 147 146 152 162 123 338 347 352 354 352 349 346 345 341 338 338 337 335 334 333 332 330 330 329 324 316 295 267
Wind_Speed_850mb
62 56 54 53 51 45 54 56 52 43 38 32 29 29 29 29 30 26 19 13 7 13 30 16 13 18 16 14 7 15 11 7 10 5 5 6 6 8 10 10 10 5 6 5 11 10 8 15 22 15 32 53 59 67
63 64 58 58 59 56 59 57 59 54 51 34 27 26 28 28 28 25 11 22 21 16 19 28 25 23 30 25 16 6 10 9 10 6 7 7 5 6 10 6 4 5 10 8 7 10 36 29 35 45 45 52 54 58
50 57 63 62 67 68 68 62 57 55 54 39 28 23 27 28 25 23 17 18 18 13 22 13 5 9 12 14 20 11 2 4 3 8 11 4 7 3 6 6 10 9 18 8 18 1 32 42 49 42 50 54 57 62
43 47 53 64 67 68 62 62 58 55 58 51 31 22 24 26 24 23 18 18 9 9 10 1 10 9 12 9 15 26 17 8 10 12 7 6 6 5 6 9 11 11 18 22 26 31 44 23 47 53 63 60 61 66
41 40 46 57 68 68 61 60 58 53 53 49 30 23 24 25 22 23 23 14 13 5 13 17 21 11 11 13 16 21 28 24 14 7 7 7 6 7 8 6 1 6 8 6 12 54 42 44 56 63 58 67 66 66
40 43 42 44 61 74 61 54 52 53 48 45 25 24 28 23 17 14 8 13 12 10 8 7 7 8 7 11 15 18 17 19 12 8 9 9 3 4 4 4 4 47 43 38 21 50 65 70 55 62 68 72 65 67
48 46 45 40 47 57 62 48 50 47 43 42 27 29 29 23 11 11 9 8 12 7 5 10 7 7 4 1 3 7 13 8 11 7 9 5 4 7 3 5 49 55 60 62 38 51 53 46 57 67 71 71 69 60
44 45 47 44 47 45 57 50 47 42 40 37 27 30 30 18 11 19 20 27 9 7 7 5 7 8 1 7 10 8 12 12 13 7 6 4 6 7 5 40 53 56 59 36 48 49 52 51 60 75 79 69 74 62
42 41 43 42 44 41 51 52 38 36 35 39 30 27 16 8 12 9 10 7 16 13 7 7 5 4 8 12 9 10 4 7 15 5 4 5 3 7 11 35 53 59 42 47 54 44 42 51 65 73 75 75 63 59
46 43 46 45 45 40 48 48 32 30 41 35 19 10 10 10 17 15 5 9 14 11 12 9 7 7 12 11 2 4 2 4 3 4 5 3 4 9 21 32 47 47 47 44 49 52 56 55 66 73 74 73 59 55
46 43 45 45 40 41 51 44 30 41 40 19 15 10 7 22 15 6 8 10 12 8 13 12 11 10 2 7 3 1 5 7 3 4 4 6 3 23 36 42 42 43 45 43 41 42 48 51 60 77 78 68 58 52
47 47 48 45 42 46 50 43 36 42 27 17 18 17 13 8 8 9 8 8 9 7 13 9 4 6 1 2 6 1 4 3 2 2 3 4 8 33 41 49 49 57 55 54 45 47 51 50 53 76 74 76 63 50
45 47 44 43 44 51 53 39 40 46 27 28 10 11 11 13 13 11 14 8 8 12 14 13 6 5 7 6 7 5 5 3 12 2 2 3 21 36 44 47 52 52 55 57 53 52 54 51 47 69 72 69 55 50
47 45 45 45 45 58 57 38 43 45 21 12 14 12 11 10 11 10 9 7 9 11 14 9 6 5 3 6 1 4 2 4 3 1 3 10 32 43 44 44 47 59 68 64 58 51 54 51 50 65 62 62 53 50
35 39 42 43 55 64 49 43 48 40 14 10 10 10 14 16 10 10 12 15 12 10 8 7 6 7 4 3 0 5 4 3 1 3 6 27 35 42 43 46 47 49 64 67 60 53 54 47 52 60 66 69 63 56
40 36 52 54 68 61 51 52 46 32 10 8 12 7 10 12 14 18 17 15 11 8 8 6 4 5 3 2 6 0 2 1 2 7 21 25 32 35 40 42 43 44 51 63 53 47 44 45 51 57 56 77 71 64
60 40 68 70 71 60 61 49 25 14 12 9 11 20 14 14 18 21 18 13 13 11 7 4 6 3 5 4 5 3 2 5 13 17 19 22 25 33 38 40 41 42 49 55 46 42 41 45 44 55 60 61 72 70
63 55 81 82 70 72 54 23 16 14 12 16 8 14 20 8 16 18 15 14 9 8 8 2 6 8 5 5 4 7 3 8 12 16 17 17 21 27 31 37 37 38 42 50 43 35 36 44 48 52 51 50 68 73
69 72 86 70 72 48 15 18 12 9 15 7 12 11 22 14 9 17 17 12 8 8 8 6 3 4 5 4 11 9 4 6 13 15 13 15 19 25 28 32 32 35 39 46 43 35 32 34 39 42 46 54 49 63
60 70 68 68 65 13 10 8 15 6 9 12 17 19 18 14 19 18 15 13 14 9 7 5 1 7 10 16 15 12 7 7 11 13 15 19 21 24 26 29 31 34 36 41 45 32 30 31 36 37 45 49 53 48
78 76 73 65 29 10 8 12 10 9 10 11 19 22 12 20 21 18 14 14 11 5 7 6 14 17 21 21 16 12 7 9 10 11 15 20 23 23 23 25 26 29 37 43 48 38 33 34 35 33 33 41 46 42
65 75 52 42 5 7 6 12 8 11 11 7 23 21 15 18 18 17 17 11 6 6 9 18 22 26 24 18 14 9 4 7 9 11 16 17 20 25 26 27 27 29 32 37 44 40 31 30 30 29 34 32 31 39
71 55 25 8 6 5 9 18 7 12 8 18 21 12 9 13 16 21 10 8 7 9 17 25 27 24 21 19 13 7 5 7 8 10 12 15 16 19 22 25 24 25 32 32 33 37 34 22 26 25 27 31 27 26
49 13 8 9 7 7 15 9 10 12 7 9 9 9 12 11 19 12 9 13 14 24 28 31 31 28 22 17 10 4 3 5 7 8 11 15 16 19 22 22 24 24 31 32 29 28 32 27 19 23 22 26 28 25
12 8 10 7 8 10 11 10 9 8 8 11 16 8 9 14 9 10 10 19 29 33 34 33 30 27 23 18 13 6 2 3 4 6 9 13 15 16 19 21 21 25 37 38 37 34 29 27 20 17 18 17 22 21
6 8 12 13 11 9 11 10 14 11 11 12 12 14 12 8 9 8 9 26 33 42 43 40 35 29 22 18 15 10 2 3 4 5 7 10 13 15 20 23 24 23 37 37 38 37 33 27 23 13 11 16 16 17
7 7 10 5 11 11 9 7 9 7 12 12 11 11 10 9 12 6 8 16 28 34 37 34 31 27 24 20 16 10 4 3 3 4 5 7 10 13 15 21 23 26 34 34 36 35 36 33 24 16 6 8 9 7
3 10 11 18 8 9 4 9 13 15 12 11 18 14 12 6 4 7 7 16 26 38 37 32 27 26 25 21 16 11 5 6 7 7 6 8 11 10 17 19 20 27 30 31 34 33 33 35 33 22 13 7 10 10
6 12 16 12 8 8 10 9 9 6 4 15 16 7 7 7 7 10 18 31 39 41 40 38 32 29 27 21 15 10 6 8 7 5 7 7 10 12 21 22 25 26 27 29 33 35 35 34 33 30 20 17 16 21
12 20 7 15 9 10 7 4 5 7 8 10 14 14 13 12 10 17 28 34 35 34 33 32 31 28 24 19 15 9 4 5 8 8 7 10 15 20 23 25 26 27 30 32 33 31 34 36 33 28 25 18 19 24
18 16 9 10 7 9 10 14 15 16 12 12 14 19 21 17 16 20 23 26 28 31 31 31 28 23 20 16 12 10 6 3 8 12 14 15 17 20 24 27 28 30 32 34 33 32 33 34 33 35 33 27 22 29
13 15 12 8 7 15 17 7 8 6 9 10 11 12 20 15 12 14 20 23 26 27 27 27 25 22 19 17 12 10 6 1 5 10 12 12 14 18 22 24 28 31 33 34 34 35 37 38 39 39 41 38 31 33
10 12 11 7 11 14 12 11 7 7 8 8 9 18 11 12 9 11 29 28 23 25 26 24 23 22 20 16 12 6 3 3 8 10 13 15 18 21 23 25 29 32 33 35 37 39 40 41 42 44 45 43 38 37
Wind_Direction_850mb
258 257 247 243 244 249 260 259 274 270 273 292 301 307 313 324 330 340 319 318 321 276 288 263 273 272 279 273 294 339 269 195 264 300 323 337 315 1 283 304 317 281 284 204 214 247 267 33 328 313 316 311 314 308
256 258 253 244 246 245 253 258 264 269 265 279 290 300 307 315 321 332 318 318 327 275 262 288 275 258 248 253 295 288 329 301 344 321 359 321 306 323 330 300 23 314 357 302 286 295 320 323 326 318 315 300 294 293
264 256 252 244 247 250 261 262 266 270 265 256 278 291 300 307 315 316 299 306 319 297 305 265 259 248 281 246 227 269 121 332 326 339 323 354 282 301 295 310 314 329 349 285 319 238 323 329 310 310 308 300 299 299
272 266 251 252 253 254 254 255 256 265 276 254 263 280 291 299 308 304 284 301 282 291 282 162 255 301 267 271 250 231 246 280 295 293 298 272 268 321 299 300 291 3 319 342 285 284 333 307 315 314 309 310 310 307
269 270 256 249 255 259 259 261 267 267 268 246 248 276 286 293 302 300 290 267 228 262 314 295 296 250 238 257 250 238 241 242 252 255 237 242 243 278 271 308 182 343 345 309 289 305 293 278 301 303 321 321 314 311
263 266 265 256 253 255 259 264 267 266 256 239 236 265 276 283 306 311 289 223 221 215 286 287 298 246 248 277 257 229 235 207 210 221 256 263 350 155 281 277 41 345 331 311 269 281 278 283 304 326 324 321 317 311
261 260 265 261 261 262 254 258 266 262 247 233 227 267 274 269 265 224 236 238 213 209 260 286 240 195 302 288 234 196 188 194 205 230 239 274 303 197 271 334 342 332 328 325 321 327 321 328 326 326 325 323 318 312
267 251 261 259 263 265 252 254 258 253 242 226 240 267 272 261 273 264 253 229 219 246 240 268 276 230 41 315 309 211 204 201 213 241 226 217 220 226 237 352 333 331 331 324 331 326 317 326 329 331 329 323 326 318
257 256 263 258 255 256 251 249 250 245 232 219 235 274 256 201 210 195 180 210 214 224 278 237 271 324 339 310 289 229 182 219 166 229 171 261 98 52 320 326 333 330 323 314 319 325 331 334 333 335 334 335 328 322
254 256 262 258 251 247 244 239 232 221 221 213 253 211 212 200 162 164 187 186 204 218 225 252 264 287 326 324 272 287 345 253 233 67 147 193 92 15 331 335 329 329 326 334 329 332 331 332 335 336 331 340 332 327
249 256 257 252 239 237 234 223 210 207 205 215 196 187 174 151 148 187 234 219 190 222 214 232 258 299 350 310 305 330 304 333 247 129 249 169 101 350 341 345 341 341 342 338 333 327 330 327 332 339 342 343 338 337
250 249 250 238 225 225 220 208 209 201 194 190 140 128 142 181 202 223 209 184 222 228 187 210 209 233 171 259 259 316 285 267 59 349 259 106 19 344 345 343 341 346 348 346 341 335 338 331 336 339 339 351 346 343
241 243 239 224 217 216 208 209 195 198 201 143 165 163 185 180 214 219 196 188 212 190 182 188 181 169 168 206 234 268 251 13 310 243 12 61 354 343 342 341 338 344 349 356 349 350 348 338 337 342 337 345 348 354
242 235 223 205 207 206 199 199 195 193 171 171 176 188 219 182 229 209 225 163 127 161 165 197 157 194 158 193 249 265 317 263 253 233 60 16 349 333 338 338 339 337 349 352 351 347 340 342 346 349 357 354 360 4
230 217 197 200 204 194 193 188 194 188 175 188 206 217 208 232 255 196 143 135 135 154 173 166 167 214 130 129 180 259 231 226 93 9 346 349 329 330 333 337 337 336 341 349 356 346 349 356 356 357 355 14 15 14
209 178 195 196 191 179 176 186 188 185 200 219 226 230 215 225 185 171 172 144 151 160 166 211 171 196 139 243 221 164 262 241 22 12 325 322 327 328 331 334 334 335 340 350 357 350 356 3 0 3 3 17 20 22
173 175 187 185 172 176 186 184 165 184 202 217 228 223 218 245 191 176 178 159 165 191 206 184 208 129 137 200 173 213 240 346 331 325 323 328 326 329 332 334 337 337 344 356 0 352 359 4 6 10 11 12 25 22
179 175 176 173 173 175 175 170 170 189 217 219 220 198 195 230 188 164 159 162 181 203 192 176 136 190 204 188 164 154 218 303 315 329 332 331 332 335 338 336 340 342 347 2 2 359 3 5 8 8 9 9 27 20
176 171 177 179 173 156 145 178 174 205 213 189 196 192 202 201 180 160 154 161 166 170 147 184 220 202 159 149 135 138 170 357 344 348 351 350 345 339 338 340 341 347 357 5 11 12 3 12 9 4 7 17 25 26
171 175 175 173 169 138 129 144 167 191 188 190 190 207 197 182 160 149 146 154 163 167 192 215 117 136 144 134 133 128 91 15 359 1 9 358 349 341 344 345 342 348 359 8 19 23 22 18 15 11 5 13 25 27
157 165 171 171 152 121 134 154 164 186 163 174 185 179 169 159 159 164 160 163 192 218 173 176 144 133 133 132 134 127 67 35 11 4 351 351 349 347 346 349 348 349 360 5 20 26 29 16 9 9 14 15 20 35
151 169 162 161 120 127 132 170 137 147 166 148 173 187 167 179 174 178 163 193 208 182 177 164 157 150 142 139 134 124 78 29 3 358 359 357 356 359 354 353 350 347 357 359 8 18 23 21 12 8 11 20 12 27
156 161 138 130 126 136 128 150 152 167 168 172 176 181 164 177 173 160 202 195 174 176 161 158 157 153 152 152 141 105 60 30 15 9 6 3 1 2 2 358 356 354 352 356 1 10 20 30 35 15 12 15 21 27
143 116 137 144 152 139 150 169 170 158 146 173 193 185 163 149 160 206 211 180 166 161 161 161 159 156 160 168 168 145 38 25 8 2 359 6 5 3 3 3 358 1 3 2 357 2 10 23 37 25 13 19 20 27
123 156 149 151 184 161 156 146 164 176 180 181 190 149 152 167 182 193 219 181 172 171 171 169 171 174 174 172 171 172 65 43 7 3 349 359 359 3 6 9 7 356 4 7 10 5 2 8 26 54 38 25 28 32
120 164 186 175 162 176 165 160 173 166 172 178 191 140 162 169 176 220 208 189 182 178 177 176 175 175 175 175 169 166 155 4 353 342 342 357 358 357 358 1 360 355 358 5 6 4 2 359 1 19 61 48 24 45
144 167 176 155 151 151 154 128 135 169 191 184 163 161 169 187 210 144 140 156 170 173 169 168 169 168 165 159 155 143 117 27 2 313 316 350 349 347 351 349 348 338 349 3 3 1 360 358 353 346 12 86 74 41
120 169 173 160 144 178 152 170 181 189 194 166 168 185 183 197 107 113 134 150 154 153 153 153 155 156 155 152 144 134 88 27 359 12 328 351 347 348 346 344 338 343 354 344 355 358 358 354 349 337 305 235 165 131
171 166 152 163 132 187 216 206 199 148 132 185 191 143 114 85 96 116 132 139 146 149 146 145 148 148 139 136 131 124 110 82 69 46 18 344 339 328 345 348 346 344 342 342 343 348 352 352 351 347 321 266 219 193
170 172 181 176 184 197 169 189 137 117 98 118 120 113 98 98 86 125 139 145 149 152 153 154 152 150 151 151 146 130 96 58 40 34 12 343 338 343 350 349 345 342 342 343 345 341 339 341 343 342 336 309 260 226
160 171 175 174 199 191 145 122 115 117 105 88 97 123 129 126 122 118 143 152 153 153 154 154 154 157 156 160 163 158 151 64 5 360 355 352 343 342 342 344 343 342 342 341 340 337 335 334 332 330 329 316 278 241
170 185 177 174 149 159 161 144 121 123 129 139 129 133 135 130 128 151 154 153 158 158 160 158 158 155 156 156 153 185 199 253 343 346 347 349 343 340 341 339 339 340 340 338 335 333 332 330 328 326 320 313 292 251
172 177 188 162 147 177 160 146 123 114 121 123 125 138 125 142 135 161 173 162 166 166 158 157 157 151 147 146 152 162 123 338 347 352 354 352 349 346 345 341 338 338 337 335 334 333 332 330 330 329 324 316 295 267